Location: Blija
(53.3527°N, 5.8613°E)
Time: 02:16:15
(UTC+00:00)

Daily predictions for brighter satellites

Satellite Brightness Start Highest point End
(mag) Time Altitude Azimuth Time Altitude Azimuth Time Altitude Azimuth
Cosmos 1025 Rocket 3.0 00:01:26 21° S 00:04:20 89° ESE 00:08:40 10° NNE
Cosmos 923 Rocket 4.0 00:01:10 10° NNW 00:06:28 87° WSW 00:11:01 14° SSE
Cosmos 1937 Rocket 4.3 00:04:13 17° SSE 00:07:49 40° ESE 00:12:40 10° NE
SL-12 R/B(2) 4.4 00:02:26 12° SSW 00:10:12 75° SE 00:20:18 10° NE
Cosmos 1898 Rocket 3.7 00:13:33 19° S 00:17:15 60° ESE 00:22:21 10° NNE
GEOS 3 Rocket 4.2 00:13:59 10° NE 00:18:50 40° SE 00:22:15 18° S
Meteor 2-1 Rocket 4.3 00:13:47 10° NNW 00:19:44 87° ENE 00:24:46 14° SSE
CZ-2D R/B 4.1 00:26:29 10° NE 00:30:15 19° E 00:33:57 10° SE
In-Cosmos 22 Rocket 4.3 00:27:54 17° S 00:32:30 82° E 00:38:22 10° NNE
Cosmos 1606 2.5 00:29:08 10° N 00:32:44 85° ENE 00:35:21 18° SSE
ADEOS II 4.4 00:31:25 10° NE 00:34:15 15° E 00:37:05 10° ESE
Helios 1A Rocket 2.8 00:32:17 15° SSE 00:35:25 80° ENE 00:39:14 10° NNW
Cosmos 1869 3.0 00:33:03 10° NNW 00:36:47 87° W 00:39:31 17° S
Cosmos 1607 4.2 00:30:57 10° NW 00:37:26 75° NE 00:43:46 10° SE
SL-16 R/B 3.3 00:34:45 10° NW 00:39:36 29° WSW 00:43:09 16° SSW
USA 234 3.7 00:34:04 10° ENE 00:40:32 66° N 00:47:01 10° W
CZ-2C R/B 3.8 00:36:36 10° SE 00:41:38 44° ENE 00:46:47 10° N
Cosmos 2341 Rocket 4.1 00:36:54 16° S 00:42:04 81° E 00:48:20 10° NNE
CENTAUR R/B 2.8 00:36:10 10° SW 00:42:12 78° NW 00:49:47 10° NE
Cosmos 1437 Rocket 4.4 00:41:41 10° SSE 00:44:48 24° E 00:47:53 10° NE
Cosmos 1603 3.8 00:39:22 10° NNW 00:45:11 85° ENE 00:50:55 10° SSE
Cosmos 1461 2.8 00:43:01 18° SSW 00:45:47 64° SE 00:49:38 10° NE
Cosmos 1680 Rocket 3.6 00:42:04 10° NNW 00:47:11 58° WSW 00:51:38 14° S
Cosmos 2228 3.1 00:43:25 10° N 00:47:46 80° ENE 00:51:39 13° SSE
CRYOSAT 2 4.4 00:45:16 10° N 00:50:12 79° W 00:54:08 16° SSW
Cosmos 1943 3.2 00:45:09 10° NW 00:50:42 63° WSW 00:56:15 10° SSE
Cosmos 2112 Rocket 4.1 00:46:05 10° NNW 00:51:13 62° WSW 00:55:56 12° S
Cosmos 292 Rocket 4.1 00:48:11 14° SW 00:52:16 60° WNW 00:57:04 10° NNE
Cosmos 2227 Rocket 3.3 00:47:39 10° WSW 00:53:01 41° NW 00:58:24 10° NNE
Cosmos 2082 3.7 00:48:25 14° SW 00:53:16 82° WNW 00:58:56 10° NNE
Aureole 1 Rocket 3.7 00:53:40 13° SW 00:57:03 52° NW 01:02:02 10° NNE
Resurs 1-4 Rocket 3.5 00:53:12 10° NNE 00:57:54 31° E 01:02:35 10° SSE
Cosmos 1821 Rocket 4.4 00:56:51 10° S 01:02:45 58° E 01:08:47 10° NNE
Cosmos 724 4.4 00:57:04 10° NW 01:02:54 81° NE 01:08:45 10° SE
BREEZE-M DEB (TANK) 3.7 01:00:22 10° W 01:03:36 17° SW 01:04:15 16° SW
USA 238 DEB 4.3 00:59:38 14° S 01:04:40 42° ESE 01:10:57 10° NE
USA 238 4.3 00:59:40 14° S 01:04:43 41° ESE 01:11:00 10° NE
H-2A R/B 3.7 01:04:07 10° N 01:07:36 25° WNW 01:11:00 10° WSW
BlueWalker 3 1.7 01:05:50 10° W 01:09:35 76° SSW 01:13:19 10° ESE
Cosmos 1544 Rocket 4.0 01:06:52 10° NNW 01:11:10 49° W 01:14:43 14° SSW
Cosmos 2218 Rocket 4.0 01:07:06 14° SSW 01:12:38 81° WNW 01:18:50 10° N
Cosmos 2297 Rocket 4.2 01:08:49 10° W 01:13:20 24° NNW 01:17:53 10° NNE
Cosmos 2366 rocket 4.1 01:08:29 14° SSW 01:14:03 77° WNW 01:20:18 10° N
ATLAS CENTAUR R/B 4.4 01:12:44 10° NNW 01:15:20 17° NNE 01:18:01 10° ENE
Cosmos 1048 Rocket 4.1 01:15:00 10° NNW 01:20:15 87° ENE 01:25:32 10° SSE
Cosmos 372 Rocket 4.4 01:15:43 12° SW 01:20:32 57° WNW 01:25:41 10° NNE
Cosmos 2219 4.1 01:15:43 10° WSW 01:21:04 43° NW 01:26:26 10° NNE
Cosmos 494 Rocket 4.0 01:18:35 10° NNW 01:23:48 69° WSW 01:29:01 10° SSE
CZ-4C R/B 4.0 01:20:10 10° WNW 01:25:09 35° N 01:31:21 10° NE
Cosmos 921 Rocket 2.9 01:22:36 10° NNW 01:26:50 70° WSW 01:30:58 10° SSE
Cosmos 1975 Rocket 4.4 01:25:49 10° SW 01:29:36 29° WNW 01:33:31 10° N
Cosmos 2227 4.3 01:26:28 12° SSW 01:31:47 84° ESE 01:37:35 10° NNE
IDEFIX/ARIANE 42P 2.8 01:27:15 10° NNE 01:32:32 72° ESE 01:37:44 10° S
Cosmos 2123 Rocket 4.4 01:29:31 10° N 01:35:42 66° ENE 01:41:53 10° SSE
MSX 4.1 01:31:59 10° NNE 01:37:44 70° ESE 01:43:26 10° S
Cosmos 1844 4.2 01:32:48 10° S 01:38:23 54° ESE 01:44:02 10° NE
Cosmos 2263 Rocket 3.1 01:34:14 10° WSW 01:39:32 43° NW 01:44:51 10° NNE
NOSS 3-2 (A) 3.9 01:34:23 10° WSW 01:39:52 58° NNW 01:46:33 10° NE
Meteor 1-28 Rocket 4.0 01:39:10 10° SE 01:42:35 49° ENE 01:46:03 10° N
Cosmos 1606 Rocket 3.6 01:42:01 10° NNW 01:46:27 73° W 01:50:51 10° S
NOSS 3-2 (C) 3.5 01:42:42 10° SW 01:48:11 81° NW 01:54:51 10° NE
Cosmos 1937 Rocket 4.4 01:44:46 10° SW 01:49:45 42° NW 01:54:43 10° NNE
CZ-2C R/B 3.4 01:47:08 10° NNE 01:52:33 68° ESE 01:57:37 10° S
Genesis I 2.9 01:50:48 10° NW 01:54:25 77° SW 01:58:02 10° SE
GEOS 3 Rocket 4.0 01:51:56 10° NE 01:57:03 60° NW 02:02:06 10° WSW
Iridium 2 3.6 01:54:58 10° SSE 01:57:16 40° E 01:59:35 10° NNE
Cosmos 1844 Rocket 2.8 01:51:42 10° SSW 01:57:17 80° ESE 02:02:52 10° NNE
SL-24 DEB 4.5 01:53:03 10° N 01:57:37 71° E 02:02:12 10° S
Cosmos 1536 Rocket 4.1 01:54:58 10° SSW 01:59:14 46° WNW 02:03:31 10° N
SL-16 R/B 2.7 01:53:05 10° SSE 01:59:19 83° ENE 02:05:35 10° NNW
Cosmos 1726 Rocket 3.6 01:55:53 10° NNW 02:00:20 70° W 02:04:43 10° S
Cosmos 1867 3.7 01:55:21 10° SW 02:00:49 84° SE 02:06:21 10° NE
Cosmos 1727 Rocket 4.5 01:56:39 10° NNW 02:02:40 47° W 02:08:40 10° SSW
H-2A R/B 3.5 02:01:42 10° N 02:05:40 65° WNW 02:09:37 10° SSW
Cosmos 1238 Rocket 2.8 02:07:02 10° N 02:10:23 59° ENE 02:13:23 10° SSE
CZ-2D R/B 2.2 02:05:34 10° NNE 02:10:56 82° WNW 02:16:13 10° SSW
USA 81 4.1 02:07:12 10° N 02:12:31 87° E 02:17:48 10° S
ALOS 3.1 02:08:36 10° NNE 02:13:06 48° E 02:17:33 10° S
ADEOS II 2.2 02:09:28 10° NNE 02:14:45 79° ESE 02:20:00 10° SSW
Cosmos 2082 Rocket 4.4 02:14:37 10° NNW 02:19:40 32° NE 02:24:40 10° ESE
Cosmos 1437 Rocket 3.6 02:16:50 10° SW 02:20:19 34° WNW 02:23:47 10° N
CZ-2C R/B 3.3 02:17:03 10° SSW 02:21:58 38° W 02:27:03 10° NNW
USA 234 3.5 02:16:49 10° ESE 02:23:22 80° NNE 02:29:57 10° WNW
